period_start,C,m1,H,J0,J1,J2,J3,J4,J5,JA,JB,JC,JD,JJ,JK,JN,#
2013-11-26 00:00:55,0.15,0.11,0.00,22.05,24.05,26.83,5.96,30.13,1018.13,2056.11,3550.24,3329.82,3618.17,350.17,325.96,1.02,0000 0000 0000 0000 000000
2013-11-26 00:01:55,0.14,0.11,0.00,22.06,24.05,26.84,6.09,30.33,1018.09,2056.10,3550.08,3329.40,3618.06,350.32,325.96,1.03,0000 0000 0000 0000 000000
2013-11-26 00:02:55,0.08,0.11,0.00,22.08,24.05,26.86,5.85,29.88,1018.08,2056.13,3549.88,3329.14,3617.91,350.46,326.02,1.03,0000 0000 0000 0000 000000
2013-11-26 00:03:56,0.13,0.11,0.00,22.07,24.04,26.84,5.98,30.08,1018.08,2056.11,3549.38,3329.05,3617.42,349.96,325.42,1.04,0000 0000 0000 0000 000000
2013-11-26 00:04:56,0.12,0.11,0.00,22.07,24.04,26.81,5.97,30.67,1018.07,2056.15,3549.13,3329.00,3617.16,349.27,324.77,1.05,0000 0000 0000 0000 000000
2013-11-26 00:05:56,0.08,0.11,0.00,22.10,24.02,26.82,6.02,30.38,1018.08,2056.27,3548.88,3328.88,3617.05,350.27,325.67,1.05,0000 0000 0000 0000 000000
2013-11-26 00:06:56,0.23,0.11,0.00,22.08,24.02,26.83,5.99,30.38,1018.08,2056.47,3548.39,3328.41,3616.98,350.29,325.71,1.06,0000 0000 0000 0000 000000
2013-11-26 00:07:56,0.32,0.11,0.00,22.05,24.02,26.82,6.02,30.58,1018.08,2056.58,3548.14,3328.15,3616.61,349.76,325.25,1.06,0000 0000 0000 0000 000000
2013-11-26 00:08:56,0.17,0.12,0.00,22.03,24.02,26.80,5.83,30.50,1018.08,2056.68,3548.02,3328.05,3616.25,349.60,325.13,1.07,0000 0000 0000 0000 000000
2013-11-26 00:09:57,0.16,0.12,0.00,22.05,24.02,26.80,6.03,30.71,1018.08,2056.68,3547.58,3327.99,3616.08,349.82,325.31,1.08,0000 0000 0000 0000 000000
2013-11-26 00:10:57,0.10,0.12,0.00,22.03,24.02,26.78,5.94,30.29,1018.09,2056.78,3547.22,3327.86,3616.01,350.21,325.40,1.08,0000 0000 0000 0000 000000
2013-11-26 00:11:57,0.16,0.12,0.00,22.02,24.01,26.79,5.89,30.38,1018.09,2056.85,3547.08,3327.43,3615.94,349.60,325.14,1.09,0000 0000 0000 0000 000000
2013-11-26 00:12:57,0.15,0.12,0.00,22.02,24.00,26.80,5.98,30.50,1018.09,2056.90,3546.85,3327.18,3615.53,350.06,325.58,1.09,0000 0000 0000 0000 000000
2013-11-26 00:13:58,0.18,0.12,0.00,21.98,24.00,26.81,6.03,30.79,1018.08,2056.93,3546.39,3327.07,3615.19,350.43,325.95,1.10,0000 0000 0000 0000 000000
2013-11-26 00:14:58,0.13,0.12,0.00,21.98,24.00,26.78,5.83,30.71,1018.05,2056.94,3546.14,3327.01,3615.06,349.02,325.04,1.10,0000 0000 0000 0000 000000
2013-11-26 00:15:58,0.06,0.12,0.00,22.01,24.00,26.78,6.10,31.21,1018.01,2056.96,3545.97,3326.86,3614.87,350.54,325.59,1.11,0000 0000 0000 0000 000000
2013-11-26 00:16:58,0.12,0.12,0.00,22.00,24.00,26.81,6.15,30.92,1018.03,2056.93,3545.45,3326.38,3614.36,350.15,325.39,1.12,0000 0000 0000 0000 000000
2013-11-26 00:17:58,0.19,0.12,0.00,22.01,24.00,26.80,6.04,30.96,1018.07,2056.96,3545.16,3326.13,3614.12,350.04,325.56,1.12,0000 0000 0000 0000 000000
2013-11-26 00:18:59,0.12,0.12,0.00,21.99,23.99,26.76,6.10,30.50,1018.08,2056.98,3545.03,3326.05,3614.02,350.63,325.71,1.13,0000 0000 0000 0000 000000
2013-11-26 00:19:59,0.06,0.12,0.00,22.01,23.99,26.79,5.95,30.63,1018.08,2056.97,3544.65,3326.02,3613.88,349.48,325.03,1.13,0000 0000 0000 0000 000000
2013-11-26 00:20:59,0.08,0.12,0.00,22.00,23.98,26.77,5.93,30.50,1018.08,2056.97,3544.26,3325.80,3613.47,349.76,325.26,1.14,0000 0000 0000 0000 000000
2013-11-26 00:21:59,0.14,0.13,0.00,21.96,23.97,26.75,5.98,30.71,1018.08,2056.98,3544.09,3325.37,3613.19,349.70,325.55,1.15,0000 0000 0000 0000 000000
2013-11-26 00:23:00,0.14,0.13,0.00,21.93,23.97,26.78,6.00,30.63,1018.08,2056.99,3543.86,3325.13,3613.06,350.40,326.01,1.15,0000 0000 0000 0000 000000
2013-11-26 00:24:00,0.10,0.13,0.00,21.94,23.97,26.78,6.02,30.96,1018.08,2056.99,3543.40,3325.04,3612.90,350.38,325.33,1.16,0000 0000 0000 0000 000000
2013-11-26 00:25:00,0.10,0.13,0.00,21.94,23.97,26.78,5.92,30.96,1018.08,2056.99,3543.15,3324.84,3612.40,350.51,325.20,1.16,0000 0000 0000 0000 000000
2013-11-26 00:26:00,0.14,0.13,0.00,21.90,23.97,26.75,5.87,30.79,1018.08,2056.99,3542.92,3324.40,3612.14,350.42,325.58,1.17,0000 0000 0000 0000 000000
2013-11-26 00:27:00,0.15,0.13,0.00,21.95,23.97,26.77,5.97,30.46,1018.08,2056.98,3542.57,3324.17,3612.05,349.89,325.48,1.17,0000 0000 0000 0000 000000
2013-11-26 00:28:01,0.08,0.13,0.00,21.94,23.96,26.79,5.86,30.46,1018.08,2056.97,3542.23,3324.07,3611.99,349.09,324.74,1.18,0000 0000 0000 0000 000000
2013-11-26 00:29:01,0.06,0.13,0.00,21.95,23.95,26.79,6.01,30.50,1018.08,2056.97,3542.08,3324.03,3611.71,349.68,325.28,1.19,0000 0000 0000 0000 000000
2013-11-26 00:30:01,0.05,0.13,0.00,21.90,23.95,26.80,5.94,30.25,1018.08,2056.98,3541.95,3323.99,3611.34,349.39,325.07,1.19,0000 0000 0000 0000 000000
2013-11-26 00:31:01,0.07,0.13,0.00,21.91,23.95,26.77,6.01,30.58,1018.08,2056.98,3541.50,3323.82,3611.13,349.79,325.44,1.20,0000 0000 0000 0000 000000
2013-11-26 00:32:02,0.13,0.13,0.00,21.94,23.95,26.78,6.08,30.38,1018.08,2056.99,3541.19,3323.44,3611.04,349.97,325.58,1.20,0000 0000 0000 0000 000000
2013-11-26 00:33:02,0.14,0.13,0.00,21.94,23.95,26.77,6.09,30.88,1018.08,2056.99,3541.01,3323.16,3610.88,350.22,326.01,1.21,0000 0000 0000 0000 000000
2013-11-26 00:34:02,0.09,0.13,0.00,21.98,23.95,26.79,6.10,30.71,1018.05,2056.99,3540.57,3323.05,3610.48,350.80,325.91,1.22,0000 0000 0000 0000 000000
2013-11-26 00:35:02,0.13,0.13,0.00,21.96,23.94,26.79,6.02,30.71,1018.00,2056.99,3540.21,3323.00,3610.20,350.47,326.03,1.22,0000 0000 0000 0000 000000
2013-11-26 00:36:03,0.07,0.13,0.00,21.93,23.94,26.77,5.87,31.00,1017.79,2056.98,3540.04,3322.67,3610.07,348.97,324.56,1.23,0000 0000 0000 0000 000000
2013-11-26 00:37:03,0.11,0.13,0.00,21.93,23.92,26.79,6.23,31.17,1017.79,2056.99,3539.65,3322.25,3609.93,351.38,326.80,1.23,0000 0000 0000 0000 000000
2013-11-26 00:38:03,0.16,0.14,0.00,21.94,23.92,26.78,5.83,30.63,1017.97,2056.99,3539.25,3322.09,3609.47,348.62,324.08,1.24,0000 0000 0000 0000 000000
2013-11-26 00:39:03,0.13,0.14,0.00,21.89,23.92,26.78,5.98,30.54,1018.03,2056.99,3539.07,3322.03,3609.19,350.43,326.04,1.25,0000 0000 0000 0000 000000
2013-11-26 00:40:03,0.05,0.14,0.00,21.86,23.92,26.75,6.17,30.96,1017.88,2056.99,3538.70,3321.80,3609.07,350.20,325.92,1.25,0000 0000 0000 0000 000000
2013-11-26 00:41:04,0.13,0.14,0.00,21.89,23.92,26.75,6.07,31.08,1017.77,2056.99,3538.27,3321.35,3609.00,349.94,325.82,1.26,0000 0000 0000 0000 000000
2013-11-26 00:42:04,0.14,0.14,0.00,21.93,23.92,26.75,6.02,31.08,1018.00,2056.99,3538.08,3321.13,3608.68,350.70,326.37,1.26,0000 0000 0000 0000 000000
2013-11-26 00:43:04,0.10,0.14,0.00,21.91,23.91,26.76,5.88,30.96,1018.04,2056.99,3537.75,3321.03,3608.29,349.57,325.32,1.27,0000 0000 0000 0000 000000
2013-11-26 00:44:04,0.11,0.14,0.00,21.86,23.90,26.74,6.08,31.21,1018.01,2056.99,3537.30,3320.97,3608.11,350.64,325.77,1.27,0000 0000 0000 0000 000000
2013-11-26 00:45:04,0.08,0.14,0.00,21.81,23.90,26.74,6.02,30.96,1017.97,2056.99,3537.11,3320.61,3608.03,350.00,325.15,1.28,0000 0000 0000 0000 000000
2013-11-26 00:46:05,0.12,0.14,0.00,21.84,23.90,26.74,5.87,30.71,1017.90,2056.99,3536.91,3320.24,3607.74,350.09,325.72,1.29,0000 0000 0000 0000 000000
2013-11-26 00:47:05,0.13,0.14,0.00,21.89,23.90,26.69,5.95,30.96,1017.75,2057.02,3536.47,3320.09,3607.32,350.15,325.71,1.29,0000 0000 0000 0000 000000
2013-11-26 00:48:05,0.15,0.14,0.00,21.83,23.89,26.72,5.88,30.92,1017.61,2057.03,3536.15,3320.03,3607.11,350.44,325.54,1.30,0000 0000 0000 0000 000000
2013-11-26 00:49:06,0.07,0.14,0.00,21.84,23.89,26.73,5.88,30.67,1017.60,2057.03,3536.01,3319.82,3607.03,349.71,325.30,1.30,0000 0000 0000 0000 000000
2013-11-26 00:50:06,0.08,0.14,0.00,21.85,23.88,26.70,5.97,30.67,1017.67,2057.02,3535.76,3319.49,3606.86,350.50,326.03,1.31,0000 0000 0000 0000 000000
2013-11-26 00:51:06,0.09,0.14,0.00,21.82,23.87,26.74,6.22,30.88,1017.64,2057.04,3535.36,3319.22,3606.43,350.00,325.60,1.32,0000 0000 0000 0000 000000
2013-11-26 00:52:07,0.19,0.15,0.00,21.84,23.87,26.74,6.22,30.96,1017.61,2057.07,3535.12,3319.08,3606.15,350.77,326.27,1.32,0000 0000 0000 0000 000000
2013-11-26 00:53:07,0.11,0.15,0.00,21.84,23.87,26.71,6.22,31.13,1017.59,2057.09,3534.87,3319.00,3606.05,350.77,326.30,1.33,0000 0000 0000 0000 000000
2013-11-26 00:54:07,0.08,0.15,0.00,21.84,23.87,26.69,5.93,30.92,1017.61,2057.07,3534.41,3318.88,3605.87,349.27,324.89,1.33,0000 0000 0000 0000 000000
2013-11-26 00:55:07,0.08,0.15,0.00,21.88,23.87,26.75,5.92,30.75,1017.61,2057.09,3534.14,3318.41,3605.39,350.12,325.63,1.34,0000 0000 0000 0000 000000
2013-11-26 00:56:08,0.20,0.15,0.00,21.85,23.87,26.73,5.88,30.88,1017.61,2057.07,3534.01,3318.15,3605.16,349.22,324.82,1.34,0000 0000 0000 0000 000000
2013-11-26 00:57:08,0.07,0.15,0.00,21.80,23.86,26.71,6.02,30.79,1017.60,2057.07,3533.59,3318.05,3605.03,350.11,325.69,1.35,0000 0000 0000 0000 000000
2013-11-26 00:58:08,0.09,0.15,0.00,21.81,23.85,26.71,6.13,31.04,1017.59,2057.06,3533.22,3317.94,3604.84,350.22,325.72,1.36,0000 0000 0000 0000 000000
2013-11-26 00:59:08,0.08,0.15,0.00,21.78,23.85,26.67,5.93,31.21,1017.60,2057.12,3533.04,3317.71,3604.46,349.78,325.33,1.36,0000 0000 0000 0000 000000
2013-11-26 01:00:09,0.16,0.15,0.00,21.78,23.85,26.68,5.93,31.08,1017.59,2057.15,3532.72,3317.31,3604.20,349.19,324.56,1.37,0000 0000 0000 0000 000000
2013-11-26 01:01:09,0.19,0.15,0.00,21.80,23.85,26.69,5.88,30.92,1017.59,2057.22,3532.30,3317.11,3604.07,349.41,325.05,1.37,0000 0000 0000 0000 000000
2013-11-26 01:02:09,0.17,0.15,0.00,21.79,23.84,26.70,6.04,31.04,1017.60,2057.22,3532.10,3317.04,3603.83,350.59,326.16,1.38,0000 0000 0000 0000 000000
2013-11-26 01:03:10,0.04,0.15,0.00,21.78,23.83,26.69,5.96,30.67,1017.61,2057.19,3531.88,3316.91,3603.36,349.82,325.46,1.39,0000 0000 0000 0000 000000
2013-11-26 01:04:10,0.09,0.15,0.00,21.80,23.82,26.67,5.85,30.79,1017.59,2057.21,3531.38,3316.45,3603.13,348.84,324.52,1.39,0000 0000 0000 0000 000000
2013-11-26 01:05:10,0.22,0.16,0.00,21.78,23.82,26.69,6.09,30.79,1017.59,2057.30,3531.13,3316.16,3603.04,350.92,326.11,1.40,0000 0000 0000 0000 000000
2013-11-26 01:06:10,0.20,0.16,0.00,21.77,23.82,26.68,5.86,30.92,1017.59,2057.38,3530.89,3316.06,3602.84,349.69,325.34,1.40,0000 0000 0000 0000 000000
2013-11-26 01:07:11,0.08,0.16,0.00,21.75,23.82,26.64,5.88,30.83,1017.59,2057.32,3530.37,3315.97,3602.36,350.06,325.70,1.41,0000 0000 0000 0000 000000
2013-11-26 01:08:11,0.12,0.16,0.00,21.76,23.82,26.64,6.19,31.13,1017.58,2057.34,3530.13,3315.56,3602.13,350.75,326.33,1.41,0000 0000 0000 0000 000000
2013-11-26 01:09:11,0.14,0.16,0.00,21.78,23.81,26.67,5.99,30.88,1017.59,2057.33,3529.91,3315.24,3602.03,350.12,325.73,1.42,0000 0000 0000 0000 000000
2013-11-26 01:10:11,0.09,0.16,0.00,21.72,23.80,26.65,6.21,30.92,1017.58,2057.52,3529.42,3315.08,3601.92,350.41,326.06,1.43,0000 0000 0000 0000 000000
2013-11-26 01:11:11,0.27,0.16,0.00,21.72,23.80,26.65,6.18,31.17,1017.43,2057.71,3529.15,3315.02,3601.63,350.33,325.95,1.43,0000 0000 0000 0000 000000
2013-11-26 01:12:12,0.24,0.16,0.00,21.75,23.80,26.67,6.17,31.54,1017.38,2057.82,3529.00,3314.87,3601.28,350.60,326.14,1.44,0000 0000 0000 0000 000000
2013-11-26 01:13:12,0.18,0.16,0.00,21.73,23.80,26.65,5.99,30.92,1017.55,2057.90,3528.66,3314.46,3601.08,349.46,325.15,1.44,0000 0000 0000 0000 000000
2013-11-26 01:14:12,0.19,0.16,0.00,21.69,23.80,26.63,6.06,30.83,1017.59,2057.94,3528.26,3314.17,3600.90,350.90,326.16,1.45,0000 0000 0000 0000 000000
2013-11-26 01:15:13,0.15,0.17,0.00,21.67,23.79,26.60,6.03,30.83,1017.59,2057.95,3528.07,3314.06,3600.47,350.50,326.21,1.46,0000 0000 0000 0000 000000
2013-11-26 01:16:13,0.13,0.17,0.00,21.68,23.78,26.63,6.01,31.04,1017.59,2057.95,3527.61,3313.92,3600.19,350.33,326.03,1.46,0000 0000 0000 0000 000000
2013-11-26 01:17:13,0.12,0.17,0.00,21.67,23.77,26.67,5.99,31.33,1017.51,2057.96,3527.23,3313.59,3600.07,350.26,325.96,1.47,0000 0000 0000 0000 000000
2013-11-26 01:18:13,0.14,0.17,0.00,21.70,23.77,26.65,6.02,30.71,1017.58,2057.97,3527.08,3313.25,3599.86,350.17,325.57,1.47,0000 0000 0000 0000 000000
2013-11-26 01:19:13,0.11,0.17,0.00,21.65,23.77,26.68,6.07,31.25,1017.59,2057.96,3526.90,3313.10,3599.46,350.51,326.06,1.48,0000 0000 0000 0000 000000
2013-11-26 01:20:13,0.09,0.17,0.00,21.65,23.77,26.65,6.02,30.67,1017.59,2057.97,3526.40,3313.03,3599.17,350.02,326.03,1.48,0000 0000 0000 0000 000000
2013-11-26 01:21:14,0.12,0.17,0.00,21.64,23.76,26.65,6.03,30.92,1017.58,2057.97,3526.13,3312.76,3599.03,349.90,325.71,1.49,0000 0000 0000 0000 000000
2013-11-26 01:22:14,0.12,0.17,0.00,21.65,23.75,26.62,6.03,31.04,1017.55,2057.97,3525.68,3312.31,3598.71,350.40,325.78,1.50,0000 0000 0000 0000 000000
2013-11-26 01:23:14,0.18,0.17,0.00,21.67,23.75,26.61,6.01,30.58,1017.59,2057.97,3525.28,3312.11,3598.30,349.49,325.27,1.50,0000 0000 0000 0000 000000
2013-11-26 01:24:14,0.14,0.17,0.00,21.66,23.75,26.63,5.91,31.33,1017.41,2057.97,3525.09,3312.04,3598.11,349.89,325.69,1.51,0000 0000 0000 0000 000000
2013-11-26 01:25:14,0.07,0.17,0.00,21.62,23.75,26.60,5.90,31.58,1017.27,2057.99,3524.70,3311.88,3598.03,349.79,325.50,1.51,0000 0000 0000 0000 000000
2013-11-26 01:26:15,0.11,0.17,0.00,21.66,23.74,26.59,6.08,31.13,1017.55,2057.99,3524.28,3311.47,3597.64,350.08,325.45,1.52,0000 0000 0000 0000 000000
2013-11-26 01:27:15,0.19,0.17,0.00,21.65,23.73,26.57,5.83,30.79,1017.48,2057.99,3524.10,3311.18,3597.24,349.68,325.39,1.53,0000 0000 0000 0000 000000
2013-11-26 01:28:15,0.11,0.17,0.00,21.63,23.72,26.57,5.97,30.83,1017.58,2057.99,3523.94,3311.07,3597.08,350.19,326.04,1.53,0000 0000 0000 0000 000000
2013-11-26 01:29:15,0.06,0.18,0.00,21.64,23.72,26.57,5.93,30.63,1017.59,2057.99,3523.44,3311.00,3597.01,349.82,325.23,1.54,0000 0000 0000 0000 000000
2013-11-26 01:30:15,0.09,0.18,0.00,21.63,23.72,26.59,5.96,30.88,1017.55,2057.99,3523.16,3310.80,3596.88,350.00,325.80,1.54,0000 0000 0000 0000 000000
2013-11-26 01:31:16,0.09,0.18,0.00,21.59,23.72,26.59,5.90,31.33,1017.42,2057.99,3522.97,3310.34,3596.48,349.75,325.54,1.55,0000 0000 0000 0000 000000
2013-11-26 01:32:16,0.18,0.18,0.00,21.58,23.71,26.58,6.10,31.38,1017.38,2057.99,3522.44,3310.12,3596.19,349.63,325.42,1.56,0000 0000 0000 0000 000000
2013-11-26 01:33:16,0.15,0.18,0.00,21.60,23.70,26.57,6.06,31.08,1017.39,2057.99,3522.16,3310.04,3596.05,350.39,326.38,1.56,0000 0000 0000 0000 000000
2013-11-26 01:34:17,0.07,0.18,0.00,21.58,23.70,26.57,5.87,30.96,1017.19,2057.99,3521.98,3309.86,3595.88,349.09,324.87,1.57,0000 0000 0000 0000 000000
2013-11-26 01:35:17,0.09,0.18,0.00,21.56,23.70,26.59,6.04,31.63,1017.12,2057.99,3521.45,3309.37,3595.40,349.68,325.41,1.57,0000 0000 0000 0000 000000
2013-11-26 01:36:17,0.24,0.18,0.00,21.57,23.70,26.56,5.98,31.50,1017.11,2057.99,3521.16,3309.14,3595.15,350.62,326.85,1.58,0000 0000 0000 0000 000000
2013-11-26 01:37:17,0.10,0.18,0.00,21.55,23.69,26.58,6.01,31.04,1017.25,2057.99,3521.02,3309.05,3595.05,349.67,325.45,1.58,0000 0000 0000 0000 000000
2013-11-26 01:38:17,0.05,0.18,0.00,21.50,23.67,26.55,5.97,30.58,1017.45,2058.01,3520.60,3308.98,3594.81,348.89,324.84,1.59,0000 0000 0000 0000 000000
2013-11-26 01:39:18,0.11,0.18,0.00,21.52,23.67,26.52,5.92,31.08,1017.30,2058.01,3520.25,3308.59,3594.34,350.26,326.06,1.60,0000 0000 0000 0000 000000
2013-11-26 01:40:18,0.19,0.18,0.00,21.55,23.67,26.53,5.97,31.17,1017.31,2058.01,3520.07,3308.22,3594.12,350.15,325.93,1.60,0000 0000 0000 0000 000000
2013-11-26 01:41:18,0.12,0.18,0.00,21.54,23.67,26.52,6.06,31.00,1017.50,2058.01,3519.83,3308.08,3593.99,350.29,326.12,1.61,0000 0000 0000 0000 000000
2013-11-26 01:42:18,0.08,0.18,0.00,21.52,23.66,26.51,6.03,30.96,1017.58,2058.01,3519.36,3308.02,3593.63,349.92,325.55,1.61,0000 0000 0000 0000 000000
2013-11-26 01:43:18,0.11,0.19,0.00,21.50,23.65,26.52,6.10,31.04,1017.59,2058.01,3519.10,3307.75,3593.25,349.99,325.93,1.62,0000 0000 0000 0000 000000
2013-11-26 01:44:19,0.13,0.19,0.00,21.53,23.65,26.51,6.06,30.79,1017.58,2058.00,3518.60,3307.29,3593.09,350.16,326.04,1.63,0000 0000 0000 0000 000000
2013-11-26 01:45:19,0.18,0.19,0.00,21.48,23.65,26.50,5.93,31.04,1017.58,2058.01,3518.22,3307.11,3592.80,350.28,325.93,1.63,0000 0000 0000 0000 000000
2013-11-26 01:46:19,0.12,0.19,0.00,21.50,23.64,26.54,6.04,31.08,1017.50,2058.04,3518.08,3307.02,3592.39,349.52,325.46,1.64,0000 0000 0000 0000 000000
2013-11-26 01:47:20,0.10,0.19,0.00,21.49,23.63,26.52,5.93,31.17,1017.53,2058.06,3517.92,3306.82,3592.16,349.39,325.46,1.64,0000 0000 0000 0000 000000
2013-11-26 01:48:20,0.10,0.19,0.00,21.43,23.62,26.48,6.07,31.08,1017.57,2058.05,3517.45,3306.37,3592.05,350.30,325.85,1.65,0000 0000 0000 0000 000000
2013-11-26 01:49:20,0.16,0.19,0.00,21.42,23.62,26.52,5.88,30.79,1017.48,2058.05,3517.16,3306.13,3591.95,349.46,325.65,1.65,0000 0000 0000 0000 000000
2013-11-26 01:50:20,0.10,0.19,0.00,21.44,23.62,26.50,6.01,30.96,1017.19,2058.13,3516.99,3306.05,3591.62,349.65,325.53,1.66,0000 0000 0000 0000 000000
2013-11-26 01:51:20,0.12,0.19,0.00,21.43,23.61,26.46,6.01,30.83,1017.12,2058.18,3516.57,3306.00,3591.24,351.22,326.98,1.67,0000 0000 0000 0000 000000
2013-11-26 01:52:21,0.15,0.19,0.00,21.45,23.60,26.46,6.01,30.75,1017.13,2058.30,3516.21,3305.75,3591.09,349.77,325.63,1.67,0000 0000 0000 0000 000000
2013-11-26 01:53:21,0.23,0.19,0.00,21.43,23.60,26.44,6.04,31.17,1017.11,2058.49,3516.04,3305.30,3591.02,350.87,326.23,1.68,0000 0000 0000 0000 000000
2013-11-26 01:54:21,0.30,0.20,0.00,21.41,23.60,26.43,6.09,31.25,1017.11,2058.64,3515.60,3305.09,3590.77,349.62,325.51,1.68,0000 0000 0000 0000 000000
2013-11-26 01:55:22,0.21,0.20,0.00,21.42,23.59,26.43,6.07,31.17,1017.11,2058.70,3515.20,3304.97,3590.36,350.48,326.31,1.69,0000 0000 0000 0000 000000
2013-11-26 01:56:22,0.17,0.20,0.00,21.38,23.57,26.43,5.98,31.50,1017.11,2058.73,3514.98,3304.61,3590.13,349.36,325.31,1.70,0000 0000 0000 0000 000000
2013-11-26 01:57:22,0.16,0.20,0.00,21.36,23.57,26.44,5.98,31.13,1017.11,2058.82,3514.47,3304.27,3589.99,349.27,325.28,1.70,0000 0000 0000 0000 000000
2013-11-26 01:58:22,0.23,0.20,0.00,21.35,23.57,26.46,6.00,31.54,1017.11,2058.89,3514.17,3304.10,3589.54,349.18,325.17,1.71,0000 0000 0000 0000 000000
2013-11-26 01:59:23,0.15,0.20,0.00,21.33,23.57,26.46,5.99,31.29,1017.10,2058.94,3513.99,3304.01,3589.20,350.50,326.42,1.71,0000 0000 0000 0000 000000
2013-11-26 02:00:23,0.11,0.20,0.00,21.33,23.56,26.44,5.84,31.42,1017.10,2058.95,3513.49,3303.77,3589.07,349.25,326.20,1.72,0000 0000 0000 0000 000000
2013-11-26 02:01:23,0.15,0.20,0.00,21.32,23.55,26.44,6.06,31.67,1017.10,2058.96,3513.18,3303.34,3588.79,350.75,326.66,1.73,0000 0000 0000 0000 000000
2013-11-26 02:02:24,0.16,0.20,0.00,21.29,23.55,26.43,5.88,31.50,1017.10,2058.96,3512.90,3303.12,3588.32,349.27,325.66,1.73,0000 0000 0000 0000 000000
2013-11-26 02:03:24,0.13,0.20,0.00,21.34,23.55,26.44,5.88,31.29,1017.11,2058.97,3512.46,3303.03,3588.12,350.17,326.11,1.74,0000 0000 0000 0000 000000
2013-11-26 02:04:24,0.09,0.20,0.00,21.36,23.54,26.40,5.96,31.38,1017.11,2058.96,3512.17,3302.87,3588.03,349.60,325.57,1.74,0000 0000 0000 0000 000000
2013-11-26 02:05:24,0.09,0.21,0.00,21.32,23.53,26.42,6.08,31.58,1017.11,2058.99,3512.00,3302.45,3587.83,350.96,326.87,1.75,0000 0000 0000 0000 000000
2013-11-26 02:06:24,0.15,0.21,0.00,21.29,23.52,26.40,5.91,31.04,1017.11,2058.99,3511.57,3302.18,3587.38,350.35,326.62,1.75,0000 0000 0000 0000 000000
2013-11-26 02:07:25,0.16,0.21,0.00,21.28,23.52,26.38,6.09,31.29,1017.10,2058.99,3511.21,3302.06,3587.14,351.02,326.35,1.76,0000 0000 0000 0000 000000
2013-11-26 02:08:25,0.09,0.21,0.00,21.30,23.51,26.38,5.92,31.04,1017.11,2058.99,3510.98,3301.97,3587.03,350.59,326.38,1.77,0000 0000 0000 0000 000000
2013-11-26 02:09:25,0.08,0.21,0.00,21.28,23.50,26.38,5.98,31.29,1017.10,2058.99,3510.49,3301.58,3586.74,348.92,325.01,1.77,0000 0000 0000 0000 000000
2013-11-26 02:10:25,0.16,0.21,0.00,21.30,23.50,26.38,5.98,31.54,1017.04,2058.99,3510.17,3301.22,3586.30,349.75,325.74,1.78,0000 0000 0000 0000 000000
2013-11-26 02:11:26,0.15,0.21,0.00,21.30,23.50,26.37,6.04,31.33,1016.86,2058.99,3509.94,3301.07,3586.11,350.34,326.24,1.78,0000 0000 0000 0000 000000
2013-11-26 02:12:26,0.08,0.21,0.00,21.27,23.49,26.34,6.04,31.54,1016.77,2058.99,3509.55,3301.01,3586.02,349.81,325.74,1.79,0000 0000 0000 0000 000000
2013-11-26 02:13:26,0.08,0.21,0.00,21.29,23.47,26.32,6.03,31.75,1016.83,2058.99,3509.22,3300.72,3585.64,349.42,325.38,1.80,0000 0000 0000 0000 000000
2013-11-26 02:14:26,0.14,0.21,0.00,21.23,23.47,26.34,6.08,31.63,1016.78,2058.99,3509.03,3300.28,3585.25,351.04,326.94,1.80,0000 0000 0000 0000 000000
2013-11-26 02:15:27,0.16,0.21,0.00,21.22,23.47,26.36,5.99,31.63,1016.72,2058.99,3508.69,3300.11,3585.09,349.74,325.72,1.81,0000 0000 0000 0000 000000
2013-11-26 02:16:27,0.09,0.21,0.00,21.20,23.47,26.34,5.99,31.50,1016.75,2058.99,3508.27,3300.04,3585.01,349.99,326.05,1.81,0000 0000 0000 0000 000000
2013-11-26 02:17:27,0.07,0.21,0.00,21.18,23.45,26.34,6.13,31.63,1016.90,2058.99,3508.07,3299.96,3584.77,349.84,326.26,1.82,0000 0000 0000 0000 000000
2013-11-26 02:18:27,0.08,0.21,0.00,21.18,23.45,26.32,5.97,31.54,1017.08,2059.00,3507.77,3299.62,3584.34,349.80,325.94,1.82,0000 0000 0000 0000 000000
2013-11-26 02:19:28,0.17,0.22,0.00,21.19,23.45,26.31,5.98,31.13,1017.10,2059.00,3507.30,3299.29,3584.12,350.06,326.11,1.83,0000 0000 0000 0000 000000
2013-11-26 02:20:28,0.15,0.22,0.00,21.20,23.44,26.29,6.13,31.04,1017.00,2059.01,3507.10,3299.11,3584.03,350.84,326.83,1.84,0000 0000 0000 0000 000000
2013-11-26 02:21:29,0.07,0.22,0.00,21.18,23.42,26.30,6.09,31.21,1016.80,2059.01,3506.75,3299.02,3583.91,350.51,326.51,1.84,0000 0000 0000 0000 000000
2013-11-26 02:22:29,0.08,0.22,0.00,21.18,23.42,26.27,5.86,31.08,1016.87,2059.00,3506.33,3298.96,3583.43,349.14,325.25,1.85,0000 0000 0000 0000 000000
2013-11-26 02:23:29,0.13,0.22,0.00,21.13,23.42,26.29,5.98,31.13,1016.70,2059.00,3506.10,3298.53,3583.16,350.14,326.63,1.85,0000 0000 0000 0000 000000
2013-11-26 02:24:29,0.14,0.22,0.00,21.11,23.41,26.28,6.07,31.29,1016.63,2059.02,3505.70,3298.19,3583.05,349.67,325.75,1.86,0000 0000 0000 0000 000000
2013-11-26 02:25:30,0.13,0.22,0.00,21.10,23.40,26.28,6.01,31.54,1016.71,2059.02,3505.27,3298.06,3583.00,348.93,325.47,1.87,0000 0000 0000 0000 000000
2013-11-26 02:26:30,0.09,0.22,0.00,21.10,23.40,26.28,5.89,31.08,1016.69,2059.04,3505.10,3297.99,3582.78,350.72,326.40,1.87,0000 0000 0000 0000 000000
2013-11-26 02:27:30,0.07,0.22,0.00,21.07,23.39,26.27,5.98,31.33,1016.63,2059.06,3504.80,3297.65,3582.31,350.01,326.10,1.88,0000 0000 0000 0000 000000
2013-11-26 02:28:31,0.19,0.22,0.00,21.08,23.38,26.25,6.04,31.92,1016.52,2059.08,3504.33,3297.27,3582.12,349.88,325.94,1.88,0000 0000 0000 0000 000000
2013-11-26 02:29:31,0.20,0.22,0.00,21.06,23.37,26.27,6.07,31.54,1016.60,2059.20,3504.11,3297.10,3582.02,351.66,327.64,1.89,0000 0000 0000 0000 000000
2013-11-26 02:30:31,0.12,0.22,0.00,21.03,23.37,26.25,6.07,31.13,1016.75,2059.25,3503.90,3297.03,3581.62,350.69,326.83,1.90,0000 0000 0000 0000 000000
2013-11-26 02:31:32,0.18,0.23,0.00,21.03,23.37,26.25,6.05,30.96,1016.67,2059.41,3503.50,3296.84,3581.27,349.45,325.59,1.90,0000 0000 0000 0000 000000
2013-11-26 02:32:32,0.24,0.23,0.00,21.03,23.36,26.28,6.05,31.75,1016.61,2059.51,3503.18,3296.39,3581.10,350.24,326.68,1.91,0000 0000 0000 0000 000000
2013-11-26 02:33:32,0.22,0.23,0.00,20.96,23.35,26.25,6.00,31.54,1016.62,2059.68,3502.87,3296.17,3581.03,349.86,326.30,1.91,0000 0000 0000 0000 000000
2013-11-26 02:34:33,0.23,0.23,0.00,20.93,23.35,26.21,5.96,31.54,1016.65,2059.80,3502.39,3296.06,3580.89,350.27,326.51,1.92,0000 0000 0000 0000 000000
2013-11-26 02:35:33,0.19,0.23,0.00,20.94,23.34,26.22,5.98,31.63,1016.62,2059.90,3502.15,3296.02,3580.41,349.91,326.15,1.92,0000 0000 0000 0000 000000
2013-11-26 02:36:33,0.15,0.23,0.00,20.97,23.32,26.20,5.96,31.33,1016.63,2059.96,3501.97,3295.91,3580.15,349.91,326.17,1.93,0000 0000 0000 0000 000000
2013-11-26 02:37:33,0.16,0.23,0.00,20.98,23.32,26.20,5.94,31.08,1016.80,2059.97,3501.52,3295.44,3580.05,349.69,325.95,1.94,0000 0000 0000 0000 000000